Flag for Jamaica Weather past 2 weeks in Montego Bay, Jamaica

Now
73 °F

Passing clouds.


Feels Like: 72 °F
Forecast: 74 / 79 °F
Wind: 5 mph from East

Location: Montego Bay / Sangster

Current Time: Jan 29, 2015 at 3:49:07 AM

Latest Report: Jan 29, 2015 at 3:00 AM


Visibility: N/A

Pressure: 29.95 "Hg

Humidity: 89%

Dew point: 70 °F

Location of Montego BayLocation

Historic Weather in Montego Bay — Graph

°F

Montego Bay temperature yesterday

Maximum temperature yesterday: 77 °F (at 12:00 AM)
Minimum temperature yesterday: 73 °F (at 11:00 PM)
Average temperature yesterday: 76 °F

Past Weeks' High & Low Weather Summary

 TemperatureHumidityPressure
High84 °F (Jan 14, 11:00 AM)100% (Jan 14, 7:00 AM)30.09 "Hg (Jan 14, 7:00 AM)
Low72 °F (Jan 21, 5:00 AM)69% (Jan 27, 9:00 PM)29.89 "Hg (Jan 19, 11:00 PM)
Average78 °F82%29.99 "Hg
* Reported Jan 14 2:00 AM — Jan 29 2:00 AM, Montego Bay, Weather by CustomWeather, © 2014

Note: Actual official high and low records may vary slightly from our data, if they occured in-between our weather recording intervals... More about our weather records

Advertising

Montego Bay weather history for previous 24 hours

 ConditionsComfort  
Time TempWeatherWind HumidityBarometerVisibility
2:00 AM
Jan 29
75 °FPassing clouds.13 mph89%29.95 "HgN/A
1:00 AM73 °FPassing clouds.3 mph83%29.98 "HgN/A
12:00 AM75 °FPassing clouds.5 mph78%29.98 "HgN/A
11:00 PM
Jan 28
73 °FPassing clouds.5 mph83%30.01 "HgN/A
10:00 PM75 °FPassing clouds.6 mph78%30.01 "HgN/A
9:00 PM75 °FPartly cloudy.6 mph78%30.01 "HgN/A
8:00 PM77 °FPassing clouds.7 mph74%29.98 "HgN/A
7:00 PM77 °FPassing clouds.8 mph69%29.98 "HgN/A
6:00 PM75 °FPartly sunny.8 mph78%29.98 "HgN/A
5:00 PM75 °FBroken clouds.10 mph74%29.98 "HgN/A
4:00 PMN/ABroken clouds.9 mphN/A29.98 "HgN/A
3:00 PM77 °FBroken clouds.10 mph74%29.98 "HgN/A
2:00 PM77 °FBroken clouds.10 mph74%29.98 "HgN/A
1:00 PM75 °FBroken clouds.10 mph78%30.01 "HgN/A
12:00 PM75 °FPartly sunny.10 mph74%30.04 "HgN/A
11:00 AMN/A12 mphN/AN/AN/A
9:00 AM75 °FPartly sunny.13 mph78%30.07 "HgN/A
8:00 AM75 °FPartly sunny.10 mph78%30.04 "HgN/A
7:00 AM75 °FPartly sunny.10 mph78%30.01 "HgN/A
6:00 AM75 °FPassing clouds.9 mph69%29.98 "HgN/A
5:00 AM75 °FPassing clouds.10 mph69%30.01 "HgN/A
4:00 AM75 °FPassing clouds.8 mph74%29.98 "HgN/A
3:00 AM77 °FPassing clouds.9 mph69%29.98 "HgN/A
Weather by CustomWeather, © 2014

See weather overviewHow to use our weather pages